Weather History for Newport News, VA

Change the Weather History Date:

Wednesday, December 21, 2011

  Actual Average Record
Temperature  
Mean Temperature 56 °F -  
Max Temperature 64 °F 51 °F 73 °F (2013)
Min Temperature 48 °F 35 °F 15 °F (2000)
Degree Days  
Heating Degree Days 9    
Growing Degree Days 6 (Base 50)    
Moisture  
Dew Point 58 °F    
Average Humidity 92    
Maximum Humidity 100    
Minimum Humidity 83    
Precipitation  
Precipitation 0.28 in - - ()
Sea Level Pressure  
Sea Level Pressure 29.99 in    
Wind  
Wind Speed 10 mph (SSW)    
Max Wind Speed 21 mph    
Max Gust Speed 30 mph    
Visibility 9 miles    
Events Rain    
Averages and records for this station are not official NWS values.
T = Trace of Precipitation, MM = Missing Value Source: NWS Daily Summary

Daily Weather History Graph

Daily Weather History Graph

Search for Another Location

Airport:

Trip Planner

Search our weather history database for the weather conditions in past years. The results will help you decide how hot, cold, wet, or windy it might be!

Date:

Astronomy

Dec. 21, 2011 Rise Set
Actual Time 7:15 AM EST 4:52 PM EST
Civil Twilight 6:46 AM EST 5:21 PM EST
Nautical Twilight 6:13 AM EST 5:54 PM EST
Astronomical Twilight 5:42 AM EST 6:25 PM EST
Moon 3:47 AM EST (12/21) 2:08 PM EST (12/21)
Length of Visible Light 10h 34m
Length of Day
9h 36m
Waning Crescent, 12% of the Moon is Illuminated
Dec 21
Waning Crescent
Dec 24
New
Jan 1
First Quarter
Jan 9
Full
Jan 16
Last Quarter

Hourly Weather History & Observations

Time (EST) Temp. Dew Point Humidity Pressure Visibility Wind Dir Wind Speed Gust Speed Precip Events Conditions
12:54 AM 48.0 °F 45.0 °F 89% 30.14 in 10.0 mi Calm Calm - N/A   Mostly Cloudy
1:54 AM 48.9 °F 46.9 °F 93% 30.13 in 10.0 mi SSW 4.6 mph - N/A   Clear
2:54 AM 51.1 °F 48.9 °F 92% 30.12 in 10.0 mi Calm Calm - N/A   Overcast
3:54 AM 53.1 °F 50.0 °F 89% 30.10 in 10.0 mi South 5.8 mph - N/A   Overcast
4:54 AM 55.0 °F 51.1 °F 86% 30.10 in 10.0 mi SSW 5.8 mph - N/A   Overcast
5:54 AM 55.0 °F 52.0 °F 89% 30.09 in 10.0 mi South 6.9 mph - 0.03 in   Mostly Cloudy
6:54 AM 55.9 °F 54.0 °F 93% 30.09 in 10.0 mi SSW 10.4 mph - 0.00 in Rain Light Rain
7:54 AM 55.9 °F 53.1 °F 90% 30.09 in 10.0 mi SSW 8.1 mph - 0.00 in   Mostly Cloudy
8:54 AM 57.0 °F 54.0 °F 89% 30.08 in 10.0 mi SSW 9.2 mph - 0.00 in Rain Light Rain
9:54 AM 59.0 °F 55.9 °F 90% 30.08 in 10.0 mi SSW 10.4 mph - 0.00 in   Scattered Clouds
10:54 AM 62.1 °F 57.0 °F 84% 30.05 in 10.0 mi SSW 12.7 mph - N/A   Scattered Clouds
11:50 AM 60.8 °F 59.0 °F 94% 30.02 in 7.0 mi SSW 12.7 mph - 0.02 in Rain Light Rain
11:54 AM 61.0 °F 59.0 °F 93% 30.02 in 7.0 mi SSW 13.8 mph - 0.02 in Rain Light Rain
12:37 PM 60.8 °F 59.0 °F 94% 30.01 in 6.0 mi SSW 15.0 mph - 0.03 in Rain Light Rain
12:47 PM 60.8 °F 60.8 °F 100% 30.00 in 6.0 mi SSW 12.7 mph - 0.04 in Rain Light Rain
12:54 PM 62.1 °F 60.1 °F 93% 30.00 in 7.0 mi SSW 11.5 mph - 0.04 in Rain Light Rain
1:06 PM 62.6 °F 60.8 °F 94% 29.99 in 4.0 mi SSW 12.7 mph - 0.03 in Rain Rain
1:18 PM 62.6 °F 60.8 °F 94% 29.99 in 6.0 mi SSW 15.0 mph - 0.04 in Rain Light Rain
1:54 PM 63.0 °F 61.0 °F 93% 29.97 in 10.0 mi South 15.0 mph - 0.04 in   Overcast
2:03 PM 62.6 °F 60.8 °F 94% 29.97 in 10.0 mi SSW 11.5 mph - N/A   Overcast
2:54 PM 63.0 °F 60.1 °F 90% 29.97 in 10.0 mi SSW 16.1 mph - 0.00 in Rain Light Rain
3:16 PM 62.6 °F 60.8 °F 94% 29.97 in 4.0 mi SSW 18.4 mph 24.2 mph 0.04 in Rain Light Rain
3:54 PM 63.0 °F 61.0 °F 93% 29.97 in 6.0 mi SSW 13.8 mph - 0.09 in Rain Light Rain
4:11 PM 62.6 °F 60.8 °F 94% 29.96 in 6.0 mi SSW 15.0 mph - 0.02 in Rain Light Rain
4:54 PM 63.0 °F 61.0 °F 93% 29.95 in 10.0 mi South 13.8 mph - 0.05 in Rain Light Rain
5:03 PM 62.6 °F 60.8 °F 94% 29.94 in 10.0 mi South 13.8 mph - 0.00 in Rain Light Rain
5:14 PM 62.6 °F 60.8 °F 94% 29.94 in 10.0 mi SSW 15.0 mph - 0.00 in Rain Light Rain
5:21 PM 62.6 °F 60.8 °F 94% 29.93 in 10.0 mi South 16.1 mph - 0.00 in Rain Light Rain
5:23 PM 62.6 °F 60.8 °F 94% 29.93 in 10.0 mi South 16.1 mph - 0.00 in Rain Light Rain
5:30 PM 62.6 °F 60.8 °F 94% 29.93 in 10.0 mi SSW 13.8 mph - 0.00 in Rain Light Rain
5:37 PM 62.6 °F 60.8 °F 94% 29.94 in 10.0 mi SSW 15.0 mph 23.0 mph 0.01 in Rain Light Rain
5:50 PM 62.6 °F 60.8 °F 94% 29.93 in 10.0 mi SSW 17.3 mph 25.3 mph 0.01 in   Mostly Cloudy
5:54 PM 63.0 °F 61.0 °F 93% 29.93 in 10.0 mi SSW 18.4 mph 26.5 mph 0.01 in   Overcast
6:06 PM 62.6 °F 60.8 °F 94% 29.92 in 10.0 mi SSW 13.8 mph 23.0 mph N/A   Mostly Cloudy
6:47 PM 62.6 °F 60.8 °F 94% 29.94 in 10.0 mi SW 13.8 mph - N/A   Mostly Cloudy
6:54 PM 63.0 °F 60.1 °F 90% 29.94 in 10.0 mi SSW 12.7 mph - N/A   Overcast
7:01 PM 62.6 °F 60.8 °F 94% 29.94 in 10.0 mi SSW 20.7 mph 27.6 mph N/A   Overcast
7:10 PM 62.6 °F 60.8 °F 94% 29.94 in 10.0 mi SW 17.3 mph 25.3 mph N/A   Overcast
7:54 PM 64.0 °F 60.1 °F 87% 29.94 in 10.0 mi SW 18.4 mph 25.3 mph N/A   Overcast
8:54 PM 63.0 °F 60.1 °F 90% 29.95 in 10.0 mi SW 18.4 mph 29.9 mph N/A   Overcast
9:35 PM 64.4 °F 60.8 °F 88% 29.95 in 10.0 mi SW 18.4 mph - N/A   Overcast
9:54 PM 64.4 °F 60.8 °F 88% 29.95 in 10.0 mi SW 16.1 mph 23.0 mph N/A   Overcast
10:17 PM 64.4 °F 59.0 °F 83% 29.96 in 10.0 mi SW 15.0 mph - N/A   Overcast
10:42 PM 62.6 °F 59.0 °F 88% 29.95 in 10.0 mi SW 17.3 mph - N/A   Partly Cloudy
10:54 PM 63.0 °F 59.0 °F 87% 29.95 in 10.0 mi SW 16.1 mph - N/A   Partly Cloudy
11:54 PM 63.0 °F 57.9 °F 84% 29.96 in 10.0 mi WSW 13.8 mph - N/A   Clear